Hourly Weather Klebowo

Today, 27 July, Tuesday

Time Temperature Precipitation Wind Pressure Humidity
00:00 +18°C° 0 mm 2 mps 748 mmHg 96%
01:00 +17°C° 0 mm 2 mps 748 mmHg 97%
02:00 +17°C° 0 mm 2 mps 748 mmHg 97%
03:00 +17°C° 0 mm 2 mps 748 mmHg 97%
04:00 +18°C° 0 mm 1 mps 748 mmHg 97%
05:00 +20°C° 0 mm 1 mps 748 mmHg 93%
06:00 +21°C° 0 mm 1 mps 748 mmHg 89%
07:00 +22°C° 0 mm 1 mps 748 mmHg 85%
08:00 +24°C° 0.1 mm 2 mps 748 mmHg 79%
09:00 +25°C° 0.1 mm 2 mps 748 mmHg 73%
10:00 +27°C° 0.1 mm 3 mps 748 mmHg 67%
11:00 +27°C° 0.6 mm 3 mps 748 mmHg 66%
12:00 +28°C° 0.6 mm 4 mps 748 mmHg 64%
13:00 +28°C° 0.6 mm 4 mps 748 mmHg 63%
14:00 +28°C° 0.3 mm 4 mps 748 mmHg 63%
15:00 +28°C° 0.3 mm 4 mps 748 mmHg 64%
16:00 +27°C° 0.3 mm 4 mps 748 mmHg 64%
17:00 +26°C° 0.4 mm 3 mps 748 mmHg 69%
18:00 +25°C° 0.4 mm 2 mps 748 mmHg 75%
19:00 +23°C° 0.4 mm 2 mps 748 mmHg 80%
20:00 +22°C° 0 mm 1 mps 748 mmHg 83%
21:00 +21°C° 0 mm 1 mps 748 mmHg 85%
22:00 +20°C° 0 mm 1 mps 749 mmHg 87%
23:00 +20°C° 0 mm 1 mps 748 mmHg 87%

Tomorrow, 28 July, Wednesday

Time Temperature Precipitation Wind Pressure Humidity
00:00 +20°C° 0 mm 1 mps 748 mmHg 86%
01:00 +20°C° 0 mm 1 mps 748 mmHg 85%
02:00 +20°C° 0 mm 1 mps 748 mmHg 85%
03:00 +20°C° 0 mm 1 mps 748 mmHg 85%
04:00 +20°C° 0 mm 1 mps 748 mmHg 86%
05:00 +21°C° 0 mm 1 mps 748 mmHg 82%
06:00 +23°C° 0 mm 2 mps 748 mmHg 78%
07:00 +24°C° 0 mm 2 mps 748 mmHg 75%
08:00 +25°C° 0.1 mm 2 mps 748 mmHg 69%
09:00 +26°C° 0.1 mm 2 mps 748 mmHg 63%
10:00 +27°C° 0.1 mm 3 mps 748 mmHg 57%
11:00 +28°C° 0 mm 3 mps 748 mmHg 54%
12:00 +28°C° 0 mm 3 mps 748 mmHg 52%
13:00 +29°C° 0 mm 3 mps 748 mmHg 49%
14:00 +28°C° 0 mm 3 mps 748 mmHg 55%
15:00 +27°C° 0 mm 2 mps 748 mmHg 61%
16:00 +26°C° 0 mm 2 mps 747 mmHg 67%
17:00 +25°C° 0 mm 2 mps 747 mmHg 68%
18:00 +24°C° 0 mm 2 mps 747 mmHg 69%
19:00 +23°C° 0 mm 2 mps 747 mmHg 70%
20:00 +21°C° 0 mm 2 mps 747 mmHg 75%
21:00 +20°C° 0 mm 2 mps 747 mmHg 79%
22:00 +19°C° 0 mm 2 mps 748 mmHg 83%
23:00 +18°C° 0.1 mm 2 mps 747 mmHg 87%

Day after tomorrow, 29 July, Thursday

Time Temperature Precipitation Wind Pressure Humidity
00:00 +18°C° 0.1 mm 2 mps 747 mmHg 91%
01:00 +18°C° 0.1 mm 2 mps 747 mmHg 94%
02:00 +17°C° 0 mm 2 mps 747 mmHg 95%
03:00 +17°C° 0 mm 2 mps 747 mmHg 96%
04:00 +16°C° 0 mm 2 mps 747 mmHg 97%
05:00 +18°C° 0 mm 2 mps 747 mmHg 92%
06:00 +19°C° 0 mm 3 mps 747 mmHg 87%
07:00 +20°C° 0 mm 3 mps 748 mmHg 82%
08:00 +21°C° 0 mm 3 mps 748 mmHg 74%
09:00 +23°C° 0 mm 4 mps 747 mmHg 66%
10:00 +25°C° 0 mm 4 mps 747 mmHg 57%
11:00 +26°C° 0 mm 4 mps 747 mmHg 55%
12:00 +26°C° 0 mm 5 mps 747 mmHg 52%
13:00 +27°C° 0 mm 5 mps 747 mmHg 49%
14:00 +27°C° 0 mm 5 mps 747 mmHg 49%
15:00 +27°C° 0 mm 5 mps 746 mmHg 49%
16:00 +27°C° 0 mm 5 mps 746 mmHg 49%
17:00 +26°C° 0 mm 4 mps 746 mmHg 55%
18:00 +24°C° 0 mm 3 mps 746 mmHg 61%
19:00 +21°C° 0 mm 2 mps 746 mmHg 67%
20:00 +20°C° 0 mm 2 mps 746 mmHg 69%
21:00 +19°C° 0 mm 2 mps 746 mmHg 72%
22:00 +18°C° 0 mm 2 mps 746 mmHg 74%
23:00 +18°C° 0 mm 2 mps 746 mmHg 74%

30 July, Friday

Time Temperature Precipitation Wind Pressure Humidity
00:00 +19°C° 0 mm 1 mps 746 mmHg 73%
01:00 +19°C° 0 mm 1 mps 746 mmHg 73%
02:00 +18°C° 0 mm 2 mps 746 mmHg 73%
03:00 +18°C° 0 mm 2 mps 746 mmHg 72%
04:00 +18°C° 0 mm 2 mps 746 mmHg 71%
05:00 +18°C° 0 mm 2 mps 746 mmHg 70%
06:00 +19°C° 0 mm 2 mps 745 mmHg 69%
07:00 +20°C° 0 mm 3 mps 745 mmHg 67%
08:00 +21°C° 0 mm 3 mps 745 mmHg 62%
09:00 +23°C° 0 mm 4 mps 745 mmHg 57%
10:00 +26°C° 0 mm 5 mps 745 mmHg 52%
11:00 +26°C° 0 mm 5 mps 744 mmHg 49%
12:00 +26°C° 0 mm 5 mps 744 mmHg 46%
13:00 +26°C° 0 mm 6 mps 744 mmHg 43%
14:00 +26°C° 0 mm 6 mps 744 mmHg 44%
15:00 +26°C° 0 mm 6 mps 744 mmHg 44%
16:00 +26°C° 0 mm 5 mps 744 mmHg 45%
17:00 +23°C° 0 mm 5 mps 743 mmHg 51%
18:00 +21°C° 0 mm 4 mps 743 mmHg 57%
19:00 +20°C° 0 mm 3 mps 743 mmHg 63%
20:00 +19°C° 0 mm 3 mps 743 mmHg 66%
21:00 +17°C° 0 mm 3 mps 744 mmHg 69%
22:00 +16°C° 0 mm 2 mps 744 mmHg 71%
23:00 +16°C° 0 mm 3 mps 744 mmHg 73%

31 July, Saturday

Time Temperature Precipitation Wind Pressure Humidity
00:00 +14°C° 0 mm 3 mps 744 mmHg 75%
01:00 +14°C° 0 mm 4 mps 744 mmHg 77%
02:00 +14°C° 0 mm 4 mps 744 mmHg 80%
03:00 +14°C° 0 mm 4 mps 744 mmHg 82%
04:00 +13°C° 0 mm 4 mps 744 mmHg 85%
05:00 +15°C° 0 mm 5 mps 744 mmHg 81%
06:00 +16°C° 0 mm 5 mps 744 mmHg 77%
07:00 +17°C° 0 mm 6 mps 744 mmHg 74%
08:00 +19°C° 0 mm 6 mps 744 mmHg 67%
09:00 +21°C° 0 mm 7 mps 744 mmHg 60%
10:00 +22°C° 0 mm 7 mps 745 mmHg 53%
11:00 +23°C° 0 mm 7 mps 745 mmHg 50%
12:00 +24°C° 0 mm 7 mps 744 mmHg 46%
13:00 +26°C° 0 mm 7 mps 744 mmHg 42%
14:00 +26°C° 0 mm 6 mps 744 mmHg 44%
15:00 +26°C° 0 mm 6 mps 744 mmHg 46%
16:00 +26°C° 0 mm 5 mps 744 mmHg 48%
17:00 +23°C° 0 mm 4 mps 744 mmHg 53%
18:00 +22°C° 0 mm 4 mps 744 mmHg 58%
19:00 +20°C° 0 mm 3 mps 744 mmHg 63%
20:00 +19°C° 0 mm 2 mps 745 mmHg 68%
21:00 +18°C° 0 mm 2 mps 745 mmHg 72%
22:00 +18°C° 0 mm 1 mps 745 mmHg 76%
23:00 +18°C° 0 mm 1 mps 745 mmHg 76%

1 August, Sunday

Time Temperature Precipitation Wind Pressure Humidity
00:00 +16°C° 0 mm 2 mps 745 mmHg 76%
01:00 +15°C° 0 mm 2 mps 745 mmHg 77%
02:00 +15°C° 0 mm 2 mps 745 mmHg 77%
03:00 +14°C° 0 mm 2 mps 745 mmHg 78%
04:00 +14°C° 0 mm 2 mps 745 mmHg 78%
05:00 +15°C° 0 mm 2 mps 745 mmHg 74%
06:00 +17°C° 0 mm 2 mps 745 mmHg 70%
07:00 +20°C° 0 mm 1 mps 745 mmHg 67%
08:00 +21°C° 0 mm 1 mps 745 mmHg 61%
09:00 +23°C° 0 mm 1 mps 745 mmHg 56%
10:00 +25°C° 0 mm 1 mps 745 mmHg 50%
11:00 +24°C° 0 mm 1 mps 745 mmHg 54%
12:00 +24°C° 0 mm 1 mps 744 mmHg 57%
13:00 +23°C° 0 mm 1 mps 744 mmHg 60%
14:00 +20°C° 2 mm 2 mps 743 mmHg 72%
15:00 +19°C° 2 mm 2 mps 743 mmHg 83%
16:00 +17°C° 2 mm 3 mps 743 mmHg 95%
17:00 +15°C° 1.1 mm 4 mps 742 mmHg 95%
18:00 +15°C° 1.1 mm 5 mps 742 mmHg 95%
19:00 +15°C° 1.1 mm 5 mps 742 mmHg 95%
20:00 +15°C° 0.9 mm 5 mps 742 mmHg 96%
21:00 +14°C° 0.9 mm 5 mps 742 mmHg 96%
22:00 +14°C° 0.9 mm 6 mps 742 mmHg 96%
23:00 +14°C° 0.6 mm 5 mps 742 mmHg 96%
Show more